Find GOES 17

NORAD ID: 43226 Int'l Des: 2018-022 Owner: NOAA Country: US operational
HEOCIRCULARGSO

当前视图

正在加载3D地球...

关于 GOES 17

正在加载描述...

即将过境

Passes for default location (London). Set your location on the main map for personalized predictions.

高度历史

Loading altitude history...

两行轨道根数

1 43226U 18022A 26150.62801578 -.00000170 00000-0 00000+0 0 9999
2 43226 0.8948 85.9748 0000820 356.7849 301.9742 1.00271246 30249
Epoch: May 30, 2026 • Age: 13 hours

当前状态

高度 35789.0 km
速度 3.07 km/s
星下点 0.55°N, 89.49°W
发射日期 Mar 1, 2018
运行时间 8.2 years
类型 weather

技术详情

分类 Payload
质量 5192.00 kg
干质量 2857.00 kg
总质量 5192.00 kg
长度 6.10 m
直径 3.90 m
跨度 12.00 m
形状 Box + panel + boom
制造商 LMCSS
平台类型 A2100
阶段状态 In Orbit
所有者/国家 NOAA/US

Most Searched